Time,TemperatureF,DewpointF,PressureIn,WindDirection,WindDirectionDegrees,WindSpeedMPH,WindSpeedGustMPH,Humidity,HourlyPrecipIn,Conditions,Clouds,dailyrainin,SolarRadiationWatts/m^2,SoftwareType,DateUTC
2013-03-11 00:09:00,60.3,37.7,29.71,SW,227,1.0,1.0,43,0.00,,,0.00,0,Wunderground v.1.15,2013-03-11 06:09:00,
2013-03-11 00:18:00,60.4,37.8,29.72,SW,219,0.0,0.0,43,0.00,,,0.00,0,Wunderground v.1.15,2013-03-11 06:18:00,
2013-03-11 00:28:00,60.4,38.4,29.71,South,176,0.0,0.0,44,0.00,,,0.00,0,Wunderground v.1.15,2013-03-11 06:28:00,
2013-03-11 00:38:00,60.4,38.4,29.71,South,169,0.0,0.0,44,0.00,,,0.00,0,Wunderground v.1.15,2013-03-11 06:38:00,
2013-03-11 00:48:00,60.3,38.3,29.72,South,170,0.0,0.0,44,0.00,,,0.00,0,Wunderground v.1.15,2013-03-11 06:48:00,
2013-03-11 00:58:00,59.8,36.6,29.71,SSE,167,0.0,0.0,42,0.00,,,0.00,0,Wunderground v.1.15,2013-03-11 06:58:00,
2013-03-11 01:08:00,59.0,35.9,29.70,SSE,163,0.0,0.0,42,0.00,,,0.00,0,Wunderground v.1.15,2013-03-11 07:08:00,
2013-03-11 01:18:00,58.2,35.8,29.69,SSE,163,0.0,0.0,43,0.00,,,0.00,0,Wunderground v.1.15,2013-03-11 07:18:00,
2013-03-11 01:28:00,57.5,35.7,29.69,SSE,163,0.0,0.0,44,0.00,,,0.00,0,Wunderground v.1.15,2013-03-11 07:28:00,
2013-03-11 01:38:00,56.4,34.7,29.71,SSE,149,0.0,0.0,44,0.00,,,0.00,0,Wunderground v.1.15,2013-03-11 07:38:00,
2013-03-11 01:48:00,55.5,34.5,29.70,SSE,148,0.0,0.0,45,0.00,,,0.00,0,Wunderground v.1.15,2013-03-11 07:48:00,
2013-03-11 01:58:00,54.5,34.7,29.71,ENE,63,1.0,1.0,47,0.00,,,0.00,0,Wunderground v.1.15,2013-03-11 07:58:00,
2013-03-11 02:08:00,53.9,34.6,29.72,ENE,65,0.0,0.0,48,0.00,,,0.00,0,Wunderground v.1.15,2013-03-11 08:08:00,
2013-03-11 02:18:00,53.5,34.8,29.71,ENE,69,0.0,0.0,49,0.00,,,0.00,0,Wunderground v.1.15,2013-03-11 08:18:00,
2013-03-11 02:28:00,53.2,35.0,29.72,ENE,69,0.0,0.0,50,0.00,,,0.00,0,Wunderground v.1.15,2013-03-11 08:28:00,
2013-03-11 02:38:00,52.9,35.2,29.72,ENE,69,0.0,0.0,51,0.00,,,0.00,0,Wunderground v.1.15,2013-03-11 08:38:00,
2013-03-11 02:48:00,52.6,35.0,29.72,ENE,61,0.0,0.0,51,0.00,,,0.00,0,Wunderground v.1.15,2013-03-11 08:48:00,
2013-03-11 02:58:00,52.1,34.5,29.72,ENE,59,0.0,0.0,51,0.00,,,0.00,0,Wunderground v.1.15,2013-03-11 08:58:00,
2013-03-11 03:08:00,51.8,34.7,29.72,ENE,63,0.0,0.0,52,0.00,,,0.00,0,Wunderground v.1.15,2013-03-11 09:08:00,
2013-03-11 03:18:00,51.5,34.9,29.72,ENE,63,0.0,0.0,53,0.00,,,0.00,0,Wunderground v.1.15,2013-03-11 09:18:00,
2013-03-11 03:28:00,51.0,34.5,29.72,ENE,61,0.0,0.0,53,0.00,,,0.00,0,Wunderground v.1.15,2013-03-11 09:28:00,
2013-03-11 03:38:00,50.5,34.0,29.72,ENE,71,0.0,0.0,53,0.00,,,0.00,0,Wunderground v.1.15,2013-03-11 09:38:00,
2013-03-11 03:48:00,50.1,34.1,29.74,ENE,69,0.0,0.0,54,0.00,,,0.00,0,Wunderground v.1.15,2013-03-11 09:48:00,
2013-03-11 03:58:00,49.7,34.2,29.74,ENE,69,0.0,0.0,55,0.00,,,0.00,0,Wunderground v.1.15,2013-03-11 09:58:00,
2013-03-11 04:09:00,49.4,34.3,29.75,ENE,69,0.0,0.0,56,0.00,,,0.00,0,Wunderground v.1.15,2013-03-11 10:09:00,
2013-03-11 04:18:00,49.2,34.6,29.75,ENE,70,0.0,0.0,57,0.00,,,0.00,0,Wunderground v.1.15,2013-03-11 10:18:00,
2013-03-11 04:28:00,49.1,34.5,29.75,ENE,69,0.0,0.0,57,0.00,,,0.00,0,Wunderground v.1.15,2013-03-11 10:28:00,
2013-03-11 04:38:00,49.0,34.9,29.75,ENE,69,0.0,0.0,58,0.00,,,0.00,0,Wunderground v.1.15,2013-03-11 10:38:00,
2013-03-11 04:48:00,48.7,35.0,29.75,ENE,69,0.0,0.0,59,0.00,,,0.00,0,Wunderground v.1.15,2013-03-11 10:48:00,
2013-03-11 04:58:00,48.4,34.7,29.75,ENE,69,0.0,0.0,59,0.00,,,0.00,0,Wunderground v.1.15,2013-03-11 10:58:00,
2013-03-11 05:08:00,48.0,34.8,29.77,ENE,65,0.0,0.0,60,0.00,,,0.00,0,Wunderground v.1.15,2013-03-11 11:08:00,
2013-03-11 05:18:00,47.8,34.6,29.77,ENE,66,0.0,0.0,60,0.00,,,0.00,0,Wunderground v.1.15,2013-03-11 11:18:00,
2013-03-11 05:28:00,47.6,34.4,29.77,ENE,67,0.0,0.0,60,0.00,,,0.00,0,Wunderground v.1.15,2013-03-11 11:28:00,
2013-03-11 05:38:00,47.5,34.3,29.78,ENE,67,0.0,0.0,60,0.00,,,0.00,0,Wunderground v.1.15,2013-03-11 11:38:00,
2013-03-11 05:48:00,47.4,34.2,29.79,ENE,67,0.0,0.0,60,0.00,,,0.00,0,Wunderground v.1.15,2013-03-11 11:48:00,
2013-03-11 05:58:00,47.3,34.5,29.79,ENE,67,0.0,0.0,61,0.00,,,0.00,0,Wunderground v.1.15,2013-03-11 11:58:00,
2013-03-11 06:08:00,47.2,34.4,29.79,ENE,67,0.0,0.0,61,0.00,,,0.00,0,Wunderground v.1.15,2013-03-11 12:08:00,
2013-03-11 06:18:00,47.0,34.2,29.80,ENE,67,0.0,0.0,61,0.00,,,0.00,0,Wunderground v.1.15,2013-03-11 12:18:00,
2013-03-11 06:28:00,46.8,34.0,29.80,ENE,67,0.0,0.0,61,0.00,,,0.00,0,Wunderground v.1.15,2013-03-11 12:28:00,
2013-03-11 06:38:00,46.7,34.0,29.80,ENE,67,0.0,0.0,61,0.00,,,0.00,0,Wunderground v.1.15,2013-03-11 12:38:00,
2013-03-11 06:48:00,46.3,34.0,29.81,ENE,65,0.0,0.0,62,0.00,,,0.00,0,Wunderground v.1.15,2013-03-11 12:48:00,
2013-03-11 06:58:00,45.9,33.6,29.82,ENE,61,1.0,2.0,62,0.00,,,0.00,7,Wunderground v.1.15,2013-03-11 12:58:00,
2013-03-11 07:08:00,45.6,33.7,29.84,ENE,65,0.0,0.0,63,0.00,,,0.00,12,Wunderground v.1.15,2013-03-11 13:08:00,
2013-03-11 07:18:00,45.3,33.8,29.86,ENE,65,0.0,0.0,64,0.00,,,0.00,21,Wunderground v.1.15,2013-03-11 13:18:00,
2013-03-11 07:28:00,45.3,34.2,29.86,East,79,0.0,0.0,65,0.00,,,0.00,62,Wunderground v.1.15,2013-03-11 13:28:00,
2013-03-11 07:38:00,46.0,34.9,29.86,ENE,78,0.0,0.0,65,0.00,,,0.00,132,Wunderground v.1.15,2013-03-11 13:38:00,
2013-03-11 07:48:00,46.8,35.3,29.86,ENE,76,0.0,0.0,64,0.00,,,0.00,151,Wunderground v.1.15,2013-03-11 13:48:00,
2013-03-11 07:58:00,47.7,35.7,29.86,ENE,76,0.0,0.0,63,0.00,,,0.00,174,Wunderground v.1.15,2013-03-11 13:58:00,
2013-03-11 08:08:00,48.8,36.4,29.87,ENE,76,0.0,0.0,62,0.00,,,0.00,169,Wunderground v.1.15,2013-03-11 14:08:00,
2013-03-11 08:18:00,50.3,37.4,29.85,ENE,76,0.0,0.0,61,0.00,,,0.00,260,Wunderground v.1.15,2013-03-11 14:18:00,
2013-03-11 08:28:00,52.6,38.2,29.84,ENE,76,0.0,0.0,58,0.00,,,0.00,274,Wunderground v.1.15,2013-03-11 14:28:00,
2013-03-11 08:38:00,55.2,40.2,29.82,ENE,62,0.0,0.0,57,0.00,,,0.00,316,Wunderground v.1.15,2013-03-11 14:38:00,
2013-03-11 08:48:00,57.3,41.7,29.81,NNE,24,0.0,0.0,56,0.00,,,0.00,350,Wunderground v.1.15,2013-03-11 14:48:00,
2013-03-11 08:58:00,59.4,42.7,29.80,North,355,0.0,0.0,54,0.00,,,0.00,364,Wunderground v.1.15,2013-03-11 14:58:00,
2013-03-11 09:08:00,61.1,43.3,29.80,NNW,342,0.0,0.0,52,0.00,,,0.00,406,Wunderground v.1.15,2013-03-11 15:08:00,
2013-03-11 09:18:00,62.4,43.5,29.80,NNW,341,0.0,0.0,50,0.00,,,0.00,471,Wunderground v.1.15,2013-03-11 15:18:00,
2013-03-11 09:28:00,63.8,43.2,29.79,WSW,253,0.0,0.0,47,0.00,,,0.00,515,Wunderground v.1.15,2013-03-11 15:28:00,
2013-03-11 09:38:00,64.5,43.8,29.78,WSW,255,0.0,0.0,47,0.00,,,0.00,536,Wunderground v.1.15,2013-03-11 15:38:00,
2013-03-11 09:48:00,65.8,44.4,29.77,WSW,252,1.0,4.0,46,0.00,,,0.00,573,Wunderground v.1.15,2013-03-11 15:48:00,
2013-03-11 09:58:00,66.5,45.1,29.76,SW,218,1.0,1.0,46,0.00,,,0.00,605,Wunderground v.1.15,2013-03-11 15:58:00,
2013-03-11 10:08:00,67.0,45.5,29.76,SW,230,2.0,3.0,46,0.00,,,0.00,633,Wunderground v.1.15,2013-03-11 16:08:00,
2013-03-11 10:18:00,67.6,45.5,29.76,WSW,238,4.0,4.0,45,0.00,,,0.00,659,Wunderground v.1.15,2013-03-11 16:18:00,
2013-03-11 10:28:00,68.0,45.9,29.76,SW,236,5.0,9.0,45,0.00,,,0.00,687,Wunderground v.1.15,2013-03-11 16:28:00,
2013-03-11 10:38:00,68.0,45.9,29.75,WSW,254,8.0,8.0,45,0.00,,,0.00,717,Wunderground v.1.15,2013-03-11 16:38:00,
2013-03-11 10:48:00,68.2,46.0,29.76,WSW,246,6.0,8.0,45,0.00,,,0.00,740,Wunderground v.1.15,2013-03-11 16:48:00,
2013-03-11 10:58:00,69.1,45.7,29.74,WSW,246,4.0,4.0,43,0.00,,,0.00,731,Wunderground v.1.15,2013-03-11 16:58:00,
2013-03-11 11:08:00,70.2,44.7,29.73,SW,225,6.0,7.0,40,0.00,,,0.00,786,Wunderground v.1.15,2013-03-11 17:08:00,
2013-03-11 11:18:00,70.2,44.1,29.73,West,270,10.0,10.0,39,0.00,,,0.00,756,Wunderground v.1.15,2013-03-11 17:18:00,
2013-03-11 11:28:00,71.1,43.5,29.73,SW,216,4.0,4.0,37,0.00,,,0.00,833,Wunderground v.1.15,2013-03-11 17:28:00,
2013-03-11 11:38:00,71.6,41.0,29.71,WNW,293,5.0,5.0,33,0.00,,,0.00,830,Wunderground v.1.15,2013-03-11 17:38:00,
2013-03-11 11:48:00,72.3,40.0,29.71,West,259,9.0,16.0,31,0.00,,,0.00,861,Wunderground v.1.15,2013-03-11 17:48:00,
2013-03-11 11:58:00,72.5,37.5,29.71,NW,309,11.0,11.0,28,0.00,,,0.00,726,Wunderground v.1.15,2013-03-11 17:58:00,
2013-03-11 12:08:00,73.0,34.1,29.70,WNW,286,7.0,12.0,24,0.00,,,0.00,824,Wunderground v.1.15,2013-03-11 18:08:00,
2013-03-11 12:18:00,74.0,39.7,29.67,SW,227,8.0,14.0,29,0.00,,,0.00,918,Wunderground v.1.15,2013-03-11 18:18:00,
2013-03-11 12:28:00,74.8,38.6,29.67,West,274,10.0,10.0,27,0.00,,,0.00,842,Wunderground v.1.15,2013-03-11 18:28:00,
2013-03-11 12:38:00,74.7,37.5,29.67,WSW,257,8.0,14.0,26,0.00,,,0.00,861,Wunderground v.1.15,2013-03-11 18:38:00,
2013-03-11 12:48:00,75.3,34.9,29.66,WSW,240,12.0,12.0,23,0.00,,,0.00,912,Wunderground v.1.15,2013-03-11 18:48:00,
2013-03-11 12:58:00,75.9,35.4,29.65,WSW,243,9.0,9.0,23,0.00,,,0.00,926,Wunderground v.1.15,2013-03-11 18:58:00,
2013-03-11 13:08:00,75.8,30.6,29.68,West,281,9.0,9.0,19,0.00,,,0.00,879,Wunderground v.1.15,2013-03-11 19:08:00,
2013-03-11 13:18:00,76.3,31.0,29.68,West,262,7.0,7.0,19,0.00,,,0.00,904,Wunderground v.1.15,2013-03-11 19:18:00,
2013-03-11 13:28:00,76.8,31.4,29.67,WNW,282,8.0,8.0,19,0.00,,,0.00,932,Wunderground v.1.15,2013-03-11 19:28:00,
2013-03-11 13:38:00,77.5,32.0,29.64,West,262,6.0,12.0,19,0.00,,,0.00,823,Wunderground v.1.15,2013-03-11 19:38:00,
2013-03-11 13:48:00,77.6,32.1,29.64,SW,232,7.0,7.0,19,0.00,,,0.00,729,Wunderground v.1.15,2013-03-11 19:48:00,
2013-03-11 13:58:00,77.8,32.2,29.64,WSW,242,10.0,11.0,19,0.00,,,0.00,851,Wunderground v.1.15,2013-03-11 19:58:00,
2013-03-11 14:08:00,78.0,31.0,29.64,West,278,8.0,11.0,18,0.00,,,0.00,740,Wunderground v.1.15,2013-03-11 20:08:00,
2013-03-11 14:18:00,78.2,31.2,29.65,WNW,290,10.0,10.0,18,0.00,,,0.00,550,Wunderground v.1.15,2013-03-11 20:18:00,
2013-03-11 14:28:00,78.1,33.7,29.63,WNW,283,8.0,12.0,20,0.00,,,0.00,654,Wunderground v.1.15,2013-03-11 20:28:00,
2013-03-11 14:38:00,78.3,35.1,29.63,West,271,10.0,10.0,21,0.00,,,0.00,707,Wunderground v.1.15,2013-03-11 20:38:00,
2013-03-11 14:48:00,79.1,33.3,29.62,North,355,9.0,9.0,19,0.00,,,0.00,784,Wunderground v.1.15,2013-03-11 20:48:00,
2013-03-11 14:58:00,79.3,32.1,29.62,NW,323,7.0,7.0,18,0.00,,,0.00,744,Wunderground v.1.15,2013-03-11 20:58:00,
2013-03-11 15:08:00,78.7,33.0,29.62,West,267,9.0,9.0,19,0.00,,,0.00,756,Wunderground v.1.15,2013-03-11 21:08:00,
2013-03-11 15:18:00,79.2,30.6,29.63,WNW,289,9.0,9.0,17,0.00,,,0.00,687,Wunderground v.1.15,2013-03-11 21:18:00,
2013-03-11 15:28:00,79.0,31.9,29.62,West,269,9.0,9.0,18,0.00,,,0.00,703,Wunderground v.1.15,2013-03-11 21:28:00,
2013-03-11 15:38:00,79.4,30.8,29.62,West,279,7.0,7.0,17,0.00,,,0.00,645,Wunderground v.1.15,2013-03-11 21:38:00,
2013-03-11 15:48:00,79.4,29.3,29.61,NW,304,10.0,10.0,16,0.00,,,0.00,628,Wunderground v.1.15,2013-03-11 21:48:00,
2013-03-11 15:58:00,79.8,31.1,29.59,West,259,9.0,9.0,17,0.00,,,0.00,582,Wunderground v.1.15,2013-03-11 21:58:00,
2013-03-11 16:08:00,80.3,30.0,29.60,SW,234,9.0,9.0,16,0.00,,,0.00,534,Wunderground v.1.15,2013-03-11 22:08:00,
2013-03-11 16:18:00,80.2,28.3,29.60,NW,311,7.0,7.0,15,0.00,,,0.00,527,Wunderground v.1.15,2013-03-11 22:18:00,
2013-03-11 16:28:00,80.0,28.2,29.61,North,360,10.0,11.0,15,0.00,,,0.00,480,Wunderground v.1.15,2013-03-11 22:28:00,
2013-03-11 16:38:00,79.7,26.3,29.61,NW,314,8.0,8.0,14,0.00,,,0.00,410,Wunderground v.1.15,2013-03-11 22:38:00,
2013-03-11 16:48:00,79.6,27.9,29.60,WNW,298,5.0,5.0,15,0.00,,,0.00,418,Wunderground v.1.15,2013-03-11 22:48:00,
2013-03-11 16:58:00,79.6,27.9,29.61,NNW,327,4.0,9.0,15,0.00,,,0.00,311,Wunderground v.1.15,2013-03-11 22:58:00,
2013-03-11 17:09:00,79.5,27.8,29.62,NW,321,6.0,6.0,15,0.00,,,0.00,329,Wunderground v.1.15,2013-03-11 23:09:00,
2013-03-11 17:18:00,79.5,27.8,29.62,WNW,300,6.0,6.0,15,0.00,,,0.00,262,Wunderground v.1.15,2013-03-11 23:18:00,
2013-03-11 17:28:00,79.4,27.7,29.62,West,271,7.0,15.0,15,0.00,,,0.00,251,Wunderground v.1.15,2013-03-11 23:28:00,
2013-03-11 17:38:00,78.9,25.6,29.63,NW,304,7.0,7.0,14,0.00,,,0.00,130,Wunderground v.1.15,2013-03-11 23:38:00,
2013-03-11 17:48:00,77.9,24.8,29.64,WNW,296,6.0,6.0,14,0.00,,,0.00,176,Wunderground v.1.15,2013-03-11 23:48:00,
2013-03-11 17:58:00,77.4,24.4,29.64,WNW,302,7.0,7.0,14,0.00,,,0.00,95,Wunderground v.1.15,2013-03-11 23:58:00,
2013-03-11 18:08:00,76.9,24.0,29.66,NW,326,6.0,6.0,14,0.00,,,0.00,69,Wunderground v.1.15,2013-03-12 00:08:00,
2013-03-11 18:18:00,76.3,23.6,29.66,NW,315,7.0,7.0,14,0.00,,,0.00,54,Wunderground v.1.15,2013-03-12 00:18:00,
2013-03-11 18:28:00,75.8,23.2,29.67,WNW,303,2.0,2.0,14,0.00,,,0.00,25,Wunderground v.1.15,2013-03-12 00:28:00,
2013-03-11 18:38:00,75.4,24.5,29.68,NW,317,3.0,3.0,15,0.00,,,0.00,12,Wunderground v.1.15,2013-03-12 00:38:00,
2013-03-11 18:48:00,74.8,24.0,29.69,WNW,283,3.0,7.0,15,0.00,,,0.00,0,Wunderground v.1.15,2013-03-12 00:48:00,
2013-03-11 18:58:00,74.3,23.6,29.69,West,275,4.0,5.0,15,0.00,,,0.00,0,Wunderground v.1.15,2013-03-12 00:58:00,
2013-03-11 19:08:00,73.8,23.2,29.69,WNW,298,3.0,5.0,15,0.00,,,0.00,0,Wunderground v.1.15,2013-03-12 01:08:00,
2013-03-11 19:18:00,73.4,24.4,29.70,WNW,297,4.0,4.0,16,0.00,,,0.00,0,Wunderground v.1.15,2013-03-12 01:18:00,
2013-03-11 19:28:00,73.0,24.1,29.71,NW,315,2.0,2.0,16,0.00,,,0.00,0,Wunderground v.1.15,2013-03-12 01:28:00,
2013-03-11 19:38:00,72.5,23.7,29.72,WNW,298,4.0,4.0,16,0.00,,,0.00,0,Wunderground v.1.15,2013-03-12 01:38:00,
2013-03-11 19:48:00,72.1,23.4,29.72,WNW,292,2.0,3.0,16,0.00,,,0.00,0,Wunderground v.1.15,2013-03-12 01:48:00,
2013-03-11 19:58:00,71.6,23.0,29.73,NW,320,2.0,2.0,16,0.00,,,0.00,0,Wunderground v.1.15,2013-03-12 01:58:00,
2013-03-11 20:08:00,70.3,31.8,29.66,East,86,2.0,7.0,24,0.00,,,0.00,0,Wunderground v.1.15,2013-03-12 02:08:00,
2013-03-11 20:18:00,66.9,32.7,29.70,East,94,3.0,3.0,28,0.00,,,0.00,0,Wunderground v.1.15,2013-03-12 02:18:00,
2013-03-11 20:28:00,63.8,34.1,29.73,East,94,6.0,12.0,33,0.00,,,0.00,0,Wunderground v.1.15,2013-03-12 02:28:00,
2013-03-11 20:38:00,60.5,35.4,29.76,East,80,10.0,10.0,39,0.00,,,0.00,0,Wunderground v.1.15,2013-03-12 02:38:00,
2013-03-11 20:48:00,58.0,35.6,29.78,ENE,71,8.0,13.0,43,0.00,,,0.00,0,Wunderground v.1.15,2013-03-12 02:48:00,
2013-03-11 20:58:00,56.5,36.5,29.80,ENE,78,8.0,8.0,47,0.00,,,0.00,0,Wunderground v.1.15,2013-03-12 02:58:00,
2013-03-11 21:08:00,55.5,37.1,29.77,ENE,61,7.0,7.0,50,0.00,,,0.00,0,Wunderground v.1.15,2013-03-12 03:08:00,
2013-03-11 21:18:00,55.0,37.7,29.78,NE,52,5.0,5.0,52,0.00,,,0.00,0,Wunderground v.1.15,2013-03-12 03:18:00,
2013-03-11 21:28:00,54.6,38.3,29.78,ENE,63,3.0,3.0,54,0.00,,,0.00,0,Wunderground v.1.15,2013-03-12 03:28:00,
2013-03-11 21:38:00,54.2,38.4,29.80,NE,37,4.0,9.0,55,0.00,,,0.00,0,Wunderground v.1.15,2013-03-12 03:38:00,
2013-03-11 21:48:00,53.4,38.5,29.80,NNE,31,6.0,11.0,57,0.00,,,0.00,0,Wunderground v.1.15,2013-03-12 03:48:00,
2013-03-11 21:58:00,52.5,37.2,29.81,East,85,8.0,8.0,56,0.00,,,0.00,0,Wunderground v.1.15,2013-03-12 03:58:00,
2013-03-11 22:08:00,51.9,36.7,29.82,NE,52,6.0,6.0,56,0.00,,,0.00,0,Wunderground v.1.15,2013-03-12 04:08:00,
2013-03-11 22:18:00,51.5,36.8,29.82,NE,43,6.0,6.0,57,0.00,,,0.00,0,Wunderground v.1.15,2013-03-12 04:18:00,
2013-03-11 22:28:00,51.1,36.4,29.83,ENE,67,5.0,7.0,57,0.00,,,0.00,0,Wunderground v.1.15,2013-03-12 04:28:00,
2013-03-11 22:38:00,50.9,37.5,29.83,ENE,69,4.0,4.0,60,0.00,,,0.00,0,Wunderground v.1.15,2013-03-12 04:38:00,
2013-03-11 22:48:00,50.6,37.2,29.83,NNE,32,4.0,6.0,60,0.00,,,0.00,0,Wunderground v.1.15,2013-03-12 04:48:00,
2013-03-11 22:58:00,50.4,37.9,29.84,East,98,5.0,5.0,62,0.00,,,0.00,0,Wunderground v.1.15,2013-03-12 04:58:00,
2013-03-11 23:08:00,50.5,38.4,29.82,ENE,78,4.0,4.0,63,0.00,,,0.00,0,Wunderground v.1.15,2013-03-12 05:08:00,
2013-03-11 23:18:00,50.3,38.2,29.83,ENE,67,4.0,8.0,63,0.00,,,0.00,0,Wunderground v.1.15,2013-03-12 05:18:00,
2013-03-11 23:28:00,49.9,38.2,29.83,ENE,57,6.0,9.0,64,0.00,,,0.00,0,Wunderground v.1.15,2013-03-12 05:28:00,
2013-03-11 23:38:00,49.4,38.1,29.83,East,81,4.0,7.0,65,0.00,,,0.00,0,Wunderground v.1.15,2013-03-12 05:38:00,
2013-03-11 23:48:00,49.1,38.2,29.83,East,91,4.0,4.0,66,0.00,,,0.00,0,Wunderground v.1.15,2013-03-12 05:48:00,
2013-03-11 23:58:00,48.7,38.2,29.84,ENE,69,4.0,4.0,67,0.00,,,0.00,0,Wunderground v.1.15,2013-03-12 05:58:00,